Location: Kalberh�ni
(46.4610°N, 7.2453°E)
Time: 02:01:16
(UTC+00:00)

SJ 16-02 - Pass Details

Date: 20 June 2021
Orbit: 606 x 616 km, 75.0° (Epoch: 25 July)

Event Time Altitude Azimuth Distance (km) Brightness Sun altitude
Rises 21:31:43 0° 356° (N) 2,876 6.0 -14.9°
Reaches altitude 10° 21:35:47 10° 33° (NNE) 1,965 4.3 -15.3°
Maximum altitude 21:36:58 11° 49° (NE) 1,902 4.0 -15.3°
Drops below altitude 10° 21:38:10 10° 65° (ENE) 1,962 3.9 -15.4°
Enters shadow 21:40:33 - 91° (E) 2,401 4.1 -15.6°
